�v������,���r���O(���x),�����t���O,���r���O(���x),�����t���O,��1(���x),�����t���O,��2���x),�����t���O,�������x,�����t���O
12/1/2002 0:00,16.9,1,69,1,25.7,1,15.4,1,11.3,1
12/1/2002 0:15,17,1,67.8,1,24.7,1,15.4,1,11.3,1
12/1/2002 0:30,16.7,1,68.2,1,23.9,1,15.4,1,11.2,1
12/1/2002 0:45,16.6,1,66.7,1,23,1,15.4,1,11.3,1
12/1/2002 1:00,16.7,1,64.7,1,22.2,1,15.4,1,11.3,1
12/1/2002 1:15,16.6,1,64.1,1,21.5,1,15.3,1,11.3,1
12/1/2002 1:30,16.5,1,63.3,1,20.9,1,15.3,1,11.4,1
12/1/2002 1:45,16.4,1,62.8,1,20.4,1,15.2,1,11.4,1
12/1/2002 2:00,16.3,1,62.5,1,19.9,1,15.2,1,11.4,1
12/1/2002 2:15,16.2,1,62.2,1,19.5,1,15.1,1,11.4,1
12/1/2002 2:30,16.1,1,61.9,1,19.2,1,15.1,1,11.5,1
12/1/2002 2:45,16,1,61.8,1,18.9,1,15,1,11.5,1
12/1/2002 3:00,15.9,1,61.7,1,18.7,1,15,1,11.5,1
12/1/2002 3:15,15.8,1,61.5,1,18.4,1,14.9,1,11.5,1
12/1/2002 3:30,15.7,1,61.4,1,18.2,1,14.9,1,11.5,1
12/1/2002 3:45,15.6,1,61.4,1,18,1,14.8,1,11.6,1
12/1/2002 4:00,15.5,1,61.2,1,17.8,1,14.8,1,11.6,1
12/1/2002 4:15,15.5,1,61.3,1,17.6,1,14.7,1,11.6,1
12/1/2002 4:30,15.4,1,61.1,1,17.4,1,14.7,1,11.6,1
12/1/2002 4:45,15.2,1,61.5,1,17.2,1,14.6,1,11.2,1
12/1/2002 5:00,15.3,1,60.9,1,17,1,14.6,1,11.2,1
12/1/2002 5:15,15.1,1,62.2,1,16.8,1,14.5,1,11,1
12/1/2002 5:30,14.9,1,64,1,16.4,1,14.5,1,11,1
12/1/2002 5:45,15.2,1,64.7,1,16.2,1,14.4,1,11,1
12/1/2002 6:00,15.3,1,62.2,1,16,1,14.4,1,11.3,1
12/1/2002 6:15,15.2,1,61.7,1,15.9,1,14.3,1,11.4,1
12/1/2002 6:30,15.2,1,61.4,1,15.7,1,14.2,1,11.4,1
12/1/2002 6:45,15.1,1,60.9,1,15.6,1,14.1,1,11.4,1
12/1/2002 7:00,15,1,61.1,1,15.4,1,14.1,1,11.4,1
12/1/2002 7:15,14.9,1,60.9,1,15.3,1,14,1,11.4,1
12/1/2002 7:30,14.8,1,60.7,1,15.2,1,13.9,1,11.5,1
12/1/2002 7:45,14.8,1,60.6,1,15,1,13.9,1,11.5,1
12/1/2002 8:00,14.8,1,60.5,1,14.9,1,13.8,1,11.5,1
12/1/2002 8:15,14.7,1,60.5,1,14.8,1,13.7,1,11.5,1
12/1/2002 8:30,14.6,1,60.5,1,14.7,1,13.7,1,11.5,1
12/1/2002 8:45,14.5,1,60.6,1,14.7,1,13.6,1,11.5,1
12/1/2002 9:00,14.5,1,60.3,1,14.6,1,13.6,1,11.6,1
12/1/2002 9:15,14.5,1,60.2,1,14.5,1,13.5,1,11.6,1
12/1/2002 9:30,14.4,1,59.9,1,14.5,1,13.5,1,11.6,1
12/1/2002 9:45,14.4,1,60.1,1,14.4,1,13.4,1,11.6,1
12/1/2002 10:00,14.3,1,60.1,1,14.3,1,13.4,1,11.6,1
12/1/2002 10:15,14.3,1,60.4,1,14.3,1,13.3,1,11.6,1
12/1/2002 10:30,14.2,1,60.6,1,14.2,1,13.3,1,11.7,1
12/1/2002 10:45,14.2,1,60.4,1,14.2,1,13.3,1,11.7,1
12/1/2002 11:00,14.1,1,60.7,1,14.1,1,13.2,1,11.7,1
12/1/2002 11:15,14.1,1,60.6,1,14.1,1,13.2,1,11.7,1
12/1/2002 11:30,14,1,61,1,14,1,13.2,1,11.7,1
12/1/2002 11:45,13.8,1,61.4,1,14,1,13.1,1,11.7,1
12/1/2002 12:00,13.8,1,61.4,1,13.9,1,13.1,1,11.7,1
12/1/2002 12:15,13.8,1,61.4,1,13.9,1,13.1,1,11.8,1
12/1/2002 12:30,13.8,1,61.5,1,13.9,1,13,1,11.8,1
12/1/2002 12:45,13.7,1,61.5,1,13.8,1,13,1,11.8,1
12/1/2002 13:00,13.7,1,61.6,1,13.8,1,13,1,11.8,1
12/1/2002 13:15,13.7,1,61.7,1,13.8,1,13,1,11.8,1
12/1/2002 13:30,13.7,1,61.7,1,13.7,1,12.9,1,11.8,1
12/1/2002 13:45,13.6,1,61.9,1,13.7,1,12.9,1,11.8,1
12/1/2002 14:00,13.6,1,61.8,1,13.7,1,12.9,1,11.8,1
12/1/2002 14:15,13.6,1,61.9,1,13.6,1,12.9,1,11.8,1
12/1/2002 14:30,13.6,1,62.1,1,13.6,1,12.9,1,11.9,1
12/1/2002 14:45,13.6,1,62.3,1,13.6,1,12.8,1,11.9,1
12/1/2002 15:00,13.6,1,62.3,1,13.6,1,12.8,1,11.9,1
12/1/2002 15:15,13.6,1,62.5,1,13.5,1,12.8,1,11.9,1
12/1/2002 15:30,13.5,1,62.7,1,13.5,1,12.8,1,11.9,1
12/1/2002 15:45,13.5,1,62.9,1,13.5,1,12.8,1,11.9,1
12/1/2002 16:00,13.4,1,62.8,1,13.4,1,12.7,1,11.9,1
12/1/2002 16:15,13.4,1,62.8,1,13.4,1,12.7,1,11.9,1
12/1/2002 16:30,13.4,1,62.7,1,13.3,1,12.7,1,11.9,1
12/1/2002 16:45,13.4,1,62.9,1,13.3,1,12.6,1,11.9,1
12/1/2002 17:00,13.3,1,63.1,1,13.3,1,12.6,1,11.9,1
12/1/2002 17:15,13.3,1,63.3,1,13.2,1,12.6,1,11.9,1
12/1/2002 17:30,13.2,1,63.6,1,13.2,1,12.5,1,11.9,1
12/1/2002 17:45,13.2,1,63.7,1,13.2,1,12.5,1,11.9,1
12/1/2002 18:00,13.2,1,63.7,1,13.1,1,12.5,1,11.9,1
12/1/2002 18:15,13.2,1,63.9,1,13.1,1,12.4,1,11.9,1
12/1/2002 18:30,13.1,1,63.9,1,13.1,1,12.4,1,11.9,1
12/1/2002 18:45,13.1,1,64.1,1,13,1,12.4,1,11.9,1
12/1/2002 19:00,13.1,1,63.8,1,13,1,12.3,1,11.9,1
12/1/2002 19:15,13,1,64.1,1,13,1,12.3,1,11.9,1
12/1/2002 19:30,13.1,1,63.4,1,12.9,1,12.2,1,11.9,1
12/1/2002 19:45,13,1,64,1,12.9,1,12.2,1,11.9,1
12/1/2002 20:00,14.1,1,63.9,1,12.9,1,12.2,1,11.3,1
12/1/2002 20:15,16.7,1,61.9,1,12.9,1,12.2,1,11.3,1
12/1/2002 20:30,17.6,1,57.8,1,13,1,12.2,1,11.1,1
12/1/2002 20:45,18.9,1,55.9,1,13.1,1,12.1,1,11.2,1
12/1/2002 21:00,19.8,1,55.5,1,13.2,1,12.1,1,11.2,1
12/1/2002 21:15,18.4,1,58.1,1,13.3,1,12.1,1,11.2,1
12/1/2002 21:30,19.4,1,57.6,1,13.4,1,12.1,1,11.2,1
12/1/2002 21:45,19.8,1,57.4,1,13.5,1,12.2,1,11.2,1
12/1/2002 22:00,19.9,1,57.1,1,13.7,1,12.2,1,11.2,1
12/1/2002 22:15,20.5,1,56,1,13.8,1,12.3,1,11.1,1
12/1/2002 22:30,20.8,1,55.4,1,13.9,1,12.3,1,11.1,1
12/1/2002 22:45,20.8,1,55.6,1,14,1,12.4,1,11.1,1
12/1/2002 23:00,20.8,1,56.4,1,14.1,1,12.4,1,11.1,1
12/1/2002 23:15,20.9,1,56.5,1,14.1,1,12.4,1,11.1,1
12/1/2002 23:30,21.3,1,56,1,14.2,1,12.4,1,11.2,1
12/1/2002 23:45,19.4,1,54.1,1,14.3,1,12.5,1,11.2,1
12/2/2002 0:00,18.4,1,56.8,1,14.3,1,12.5,1,11.1,1
12/2/2002 0:15,17.8,1,57.7,1,14.4,1,12.5,1,11.1,1
12/2/2002 0:30,17.5,1,58.1,1,14.4,1,12.5,1,11.2,1
12/2/2002 0:45,17.2,1,58.3,1,14.4,1,12.5,1,11.2,1
12/2/2002 1:00,16.7,1,59.4,1,14.4,1,12.6,1,11.2,1
12/2/2002 1:15,16.6,1,59,1,14.4,1,12.6,1,11.2,1
12/2/2002 1:30,16.3,1,59.7,1,14.4,1,12.6,1,11.2,1
12/2/2002 1:45,16.1,1,60.1,1,14.3,1,12.6,1,11.3,1
12/2/2002 2:00,16,1,59.6,1,14.3,1,12.6,1,11.3,1
12/2/2002 2:15,15.8,1,60.2,1,14.3,1,12.6,1,11.3,1
12/2/2002 2:30,15.7,1,59.8,1,14.3,1,12.6,1,11.3,1
12/2/2002 2:45,15.6,1,59.9,1,14.3,1,12.6,1,11.3,1
12/2/2002 3:00,15.5,1,59.8,1,14.2,1,12.6,1,11.3,1
12/2/2002 3:15,15.3,1,60.2,1,14.2,1,12.6,1,11.3,1
12/2/2002 3:30,15.2,1,60.2,1,14.2,1,12.6,1,11.4,1
12/2/2002 3:45,15.1,1,60.4,1,14.2,1,12.6,1,11.4,1
12/2/2002 4:00,15,1,60.5,1,14.2,1,12.6,1,11.4,1
12/2/2002 4:15,14.7,1,61.6,1,14.2,1,12.6,1,11.4,1
12/2/2002 4:30,14.5,1,62.1,1,14.1,1,12.6,1,11.4,1
12/2/2002 4:45,14.5,1,61.9,1,14.1,1,12.5,1,11.4,1
12/2/2002 5:00,14.3,1,62.6,1,14.1,1,12.5,1,11.4,1
12/2/2002 5:15,14.2,1,62.8,1,14,1,12.5,1,11.4,1
12/2/2002 5:30,14.1,1,62.9,1,14,1,12.4,1,11.5,1
12/2/2002 5:45,14,1,63.2,1,13.9,1,12.3,1,11.5,1
12/2/2002 6:00,14.1,1,62.2,1,13.9,1,12.3,1,11.5,1
12/2/2002 6:15,13.9,1,63.2,1,13.9,1,12.2,1,11.5,1
12/2/2002 6:30,14.4,1,62.9,1,13.8,1,12.2,1,11.5,1
12/2/2002 6:45,14.3,1,66.4,1,13.8,1,12.1,1,11.5,1
12/2/2002 7:00,14.6,1,67.4,1,13.9,1,12,1,11.6,1
12/2/2002 7:15,14.5,1,65.7,1,14,1,12.2,1,11.6,1
12/2/2002 7:30,13.9,1,65.5,1,13.8,1,12.6,1,11.6,1
12/2/2002 7:45,13.6,1,67.2,1,13.6,1,12.8,1,11.3,1
12/2/2002 8:00,13.7,1,66.2,1,13.5,1,12.9,1,11.3,1
12/2/2002 8:15,13.6,1,65.4,1,13.4,1,12.6,1,11.3,1
12/2/2002 8:30,13.4,1,63.9,1,13.2,1,12.6,1,11.3,1
12/2/2002 8:45,13.5,1,62.7,1,14.1,1,12.6,1,11.3,1
12/2/2002 9:00,13.4,1,65.3,1,13.7,1,12.6,1,11.3,1
12/2/2002 9:15,13.7,1,64.7,1,13.8,1,12.7,1,11.3,1
12/2/2002 9:30,13.8,1,65,1,14,1,12.9,1,11.2,1
12/2/2002 9:45,14.1,1,63.8,1,14.2,1,13.1,1,11.2,1
12/2/2002 10:00,14.2,1,63.7,1,14.3,1,13.3,1,11.2,1
12/2/2002 10:15,14.4,1,62.8,1,14.5,1,13.5,1,11.2,1
12/2/2002 10:30,14.5,1,62.5,1,14.7,1,13.7,1,11.2,1
12/2/2002 10:45,14.6,1,62.1,1,14.9,1,14,1,11.2,1
12/2/2002 11:00,14.8,1,61.9,1,15.1,1,14.3,1,11.2,1
12/2/2002 11:15,14.9,1,61.7,1,15.3,1,14.5,1,11.2,1
12/2/2002 11:30,15.1,1,61.4,1,15.5,1,14.8,1,11.2,1
12/2/2002 11:45,15.3,1,61,1,15.7,1,15.1,1,11.2,1
12/2/2002 12:00,15.4,1,60.6,1,15.9,1,15.4,1,11.2,1
12/2/2002 12:15,15.6,1,60.2,1,16.1,1,15.6,1,11.2,1
12/2/2002 12:30,15.8,1,59.8,1,16.4,1,15.9,1,11.3,1
12/2/2002 12:45,15.9,1,59.4,1,16.5,1,16.2,1,11.3,1
12/2/2002 13:00,16.1,1,58.9,1,16.7,1,16.4,1,11.3,1
12/2/2002 13:15,16.3,1,58.4,1,16.9,1,16.7,1,11.3,1
12/2/2002 13:30,16.4,1,57.3,1,17,1,16.9,1,11.3,1
12/2/2002 13:45,16.4,1,54.9,1,17,1,17,1,11.3,1
12/2/2002 14:00,16.6,1,55.5,1,17,1,17.2,1,11.4,1
12/2/2002 14:15,16.5,1,54.4,1,16.9,1,17.3,1,11.4,1
12/2/2002 14:30,16.5,1,54,1,16.8,1,17.3,1,11.4,1
12/2/2002 14:45,16.2,1,53.6,1,16.8,1,17.2,1,11.4,1
12/2/2002 15:00,16.2,1,52.9,1,16.7,1,17.3,1,11.5,1
12/2/2002 15:15,16.1,1,52.7,1,16.6,1,17.3,1,11.5,1
12/2/2002 15:30,16.3,1,54.1,1,16.6,1,17.3,1,11.5,1
12/2/2002 15:45,16.4,1,54.2,1,16.6,1,17.3,1,11.5,1
12/2/2002 16:00,16.4,1,54.5,1,16.6,1,17.3,1,11.1,1
12/2/2002 16:15,16.5,1,54.8,1,16.6,1,17.2,1,11.2,1
12/2/2002 16:30,16.5,1,54.9,1,16.6,1,17.2,1,11.2,1
12/2/2002 16:45,16.5,1,55.3,1,16.6,1,17.1,1,11.2,1
12/2/2002 17:00,15.7,1,53.4,1,16.5,1,17,1,11.3,1
12/2/2002 17:15,15.1,1,55.6,1,16.5,1,16.9,1,11.3,1
12/2/2002 17:30,14.8,1,57.8,1,16.4,1,16.8,1,11.3,1
12/2/2002 17:45,16,1,57.9,1,16.3,1,16.7,1,11.4,1
12/2/2002 18:00,17.9,1,55.1,1,16.3,1,16.6,1,11.4,1
12/2/2002 18:15,18.4,1,52.1,1,16.2,1,16.5,1,11.4,1
12/2/2002 18:30,19.1,1,50.7,1,16.1,1,16.4,1,11.5,1
12/2/2002 18:45,19.2,1,54.3,1,16,1,16.3,1,11.4,1
12/2/2002 19:00,20.2,1,58.2,1,16,1,16.2,1,11.5,1
12/2/2002 19:15,20.2,1,55.1,1,16,1,16.1,1,11.5,1
12/2/2002 19:30,19.6,1,55,1,16.1,1,16,1,11.5,1
12/2/2002 19:45,20.6,1,54.5,1,16.1,1,15.9,1,11.6,1
12/2/2002 20:00,20.5,1,54.8,1,16.2,1,15.8,1,11.6,1
12/2/2002 20:15,19.5,1,55.6,1,16.7,1,15.7,1,11.6,1
12/2/2002 20:30,19.5,1,56.4,1,17.2,1,15.6,1,11.7,1
12/2/2002 20:45,20.6,1,54.1,1,17.3,1,15.5,1,11.3,1
12/2/2002 21:00,21.1,1,52.8,1,17.3,1,15.5,1,11.3,1
12/2/2002 21:15,21.5,1,52.7,1,17.3,1,15.4,1,11.3,1
12/2/2002 21:30,21.6,1,53,1,17.3,1,15.3,1,11.3,1
12/2/2002 21:45,21.8,1,52.5,1,17.2,1,15.2,1,11.4,1
12/2/2002 22:00,21.7,1,51.5,1,17.2,1,15.1,1,11.2,1
12/2/2002 22:15,21.8,1,51.3,1,17.1,1,15,1,11.3,1
12/2/2002 22:30,20.2,1,55.7,1,17.1,1,14.9,1,11.3,1
12/2/2002 22:45,21.1,1,54.7,1,17.1,1,14.9,1,11.3,1
12/2/2002 23:00,20.5,1,52.9,1,17.1,1,14.8,1,11.4,1
12/2/2002 23:15,21.7,1,50.4,1,17,1,14.8,1,11.4,1
12/2/2002 23:30,21.9,1,52.7,1,17,1,14.7,1,11.5,1
12/2/2002 23:45,21.9,1,52.4,1,16.9,1,14.6,1,11.5,1
12/3/2002 0:00,21.6,1,54.6,1,16.8,1,14.5,1,11.5,1
12/3/2002 0:15,20.5,1,52.2,1,16.9,1,14.5,1,11.5,1
12/3/2002 0:30,19.9,1,54.3,1,17.1,1,14.4,1,11.6,1
12/3/2002 0:45,19.5,1,55.1,1,17.2,1,14.3,1,11.6,1
12/3/2002 1:00,19.3,1,55.5,1,17.2,1,14.2,1,11.6,1
12/3/2002 1:15,18.9,1,56.2,1,17.2,1,14.1,1,11.6,1
12/3/2002 1:30,18.7,1,56.5,1,17.2,1,14,1,11.6,1
12/3/2002 1:45,18.6,1,56.5,1,17.1,1,13.9,1,11.7,1
12/3/2002 2:00,18.5,1,56.5,1,17,1,13.8,1,11.7,1
12/3/2002 2:15,18.3,1,56.6,1,16.9,1,13.7,1,11.7,1
12/3/2002 2:30,18.1,1,56.7,1,16.8,1,13.6,1,11.7,1
12/3/2002 2:45,17.9,1,57,1,16.7,1,13.5,1,11.7,1
12/3/2002 3:00,17.8,1,57.2,1,16.6,1,13.4,1,11.7,1
12/3/2002 3:15,17.6,1,57.3,1,16.4,1,13.3,1,11.7,1
12/3/2002 3:30,17.4,1,57.1,1,16.3,1,13.2,1,11.7,1
12/3/2002 3:45,17.2,1,57.2,1,16.2,1,13.1,1,11.7,1
12/3/2002 4:00,17.1,1,57.5,1,16,1,13,1,11.7,1
12/3/2002 4:15,16.9,1,57.6,1,15.9,1,12.9,1,11.7,1
12/3/2002 4:30,16.7,1,57.6,1,15.8,1,12.8,1,11.7,1
12/3/2002 4:45,16.6,1,57.6,1,15.6,1,12.7,1,11.6,1
12/3/2002 5:00,16.4,1,57.8,1,15.5,1,12.6,1,11.6,1
12/3/2002 5:15,16.3,1,57.9,1,15.3,1,12.5,1,11.6,1
12/3/2002 5:30,16.2,1,57.9,1,15.2,1,12.4,1,11.6,1
12/3/2002 5:45,16,1,58.3,1,15.1,1,12.3,1,11.6,1
12/3/2002 6:00,15.9,1,58.3,1,14.9,1,12.2,1,11.5,1
12/3/2002 6:15,15.5,1,59.8,1,14.8,1,12.1,1,11.8,1
12/3/2002 6:30,11.1,1,69.9,1,14.8,1,12,1,11.9,1
12/3/2002 6:45,14.7,1,68.2,1,14.8,1,11.9,1,11.9,1
12/3/2002 7:00,15.1,1,64.5,1,14.8,1,11.7,1,11.8,1
12/3/2002 7:15,14,1,61.5,1,14.5,1,11.7,1,11.8,1
12/3/2002 7:30,13.7,1,61.9,1,14,1,11.7,1,11.8,1
12/3/2002 7:45,13.5,1,61.6,1,13.7,1,11.7,1,11.8,1
12/3/2002 8:00,13.4,1,61.8,1,13.4,1,11.7,1,11.4,1
12/3/2002 8:15,13.2,1,60.9,1,13.2,1,11.8,1,11.4,1
12/3/2002 8:30,13.3,1,60.2,1,13,1,11.7,1,11.4,1
12/3/2002 8:45,13.1,1,60.2,1,12.9,1,11.8,1,11.4,1
12/3/2002 9:00,13.1,1,61.7,1,12.9,1,11.7,1,11.4,1
12/3/2002 9:15,13.4,1,61.7,1,13.1,1,11.8,1,11.4,1
12/3/2002 9:30,13.3,1,62.9,1,13.3,1,11.8,1,11.4,1
12/3/2002 9:45,13.8,1,61.1,1,13.7,1,11.9,1,11.3,1
12/3/2002 10:00,14,1,60.5,1,14.1,1,12,1,11.3,1
12/3/2002 10:15,14.1,1,60.5,1,14.5,1,12.2,1,11.3,1
12/3/2002 10:30,14.2,1,60.9,1,14.9,1,12.5,1,11.3,1
12/3/2002 10:45,14.4,1,60.6,1,15.5,1,12.7,1,11.3,1
12/3/2002 11:00,14.5,1,60.7,1,16,1,13,1,11.3,1
12/3/2002 11:15,14.6,1,60.8,1,16.5,1,13.3,1,11.3,1
12/3/2002 11:30,14.7,1,60.7,1,16.9,1,13.6,1,11.3,1
12/3/2002 11:45,14.8,1,60.6,1,17.4,1,13.9,1,11.3,1
12/3/2002 12:00,14.9,1,60.7,1,17.8,1,14.2,1,11.3,1
12/3/2002 12:15,15.1,1,60.8,1,18,1,14.4,1,11.3,1
12/3/2002 12:30,15.4,1,60.5,1,18.3,1,14.7,1,11.3,1
12/3/2002 12:45,15.7,1,60.2,1,18.6,1,14.9,1,11.3,1
12/3/2002 13:00,15.9,1,60.1,1,18.9,1,15.2,1,11.3,1
12/3/2002 13:15,16.2,1,59.7,1,19.1,1,15.5,1,11.3,1
12/3/2002 13:30,16.3,1,59.7,1,19.2,1,15.7,1,11.3,1
12/3/2002 13:45,16.5,1,59.5,1,19.3,1,15.9,1,11.3,1
12/3/2002 14:00,16.7,1,59.1,1,19.3,1,16.1,1,11.4,1
12/3/2002 14:15,16.7,1,58.8,1,19.1,1,16.3,1,11.4,1
12/3/2002 14:30,17,1,59.3,1,19,1,16.5,1,11.4,1
12/3/2002 14:45,16.8,1,59.8,1,18.9,1,16.5,1,11.1,1
12/3/2002 15:00,16.9,1,59.5,1,18.7,1,16.6,1,11.2,1
12/3/2002 15:15,16.9,1,59.1,1,18.6,1,16.6,1,11.2,1
12/3/2002 15:30,17,1,58.9,1,18.4,1,16.5,1,11.2,1
12/3/2002 15:45,16.8,1,58.8,1,18.2,1,16.5,1,11.2,1
12/3/2002 16:00,16.8,1,58.9,1,18,1,16.4,1,11.2,1
12/3/2002 16:15,16.8,1,59,1,17.9,1,16.4,1,11.3,1
12/3/2002 16:30,16.8,1,58.5,1,17.7,1,16.3,1,11.3,1
12/3/2002 16:45,16.8,1,58.2,1,17.6,1,16.2,1,11.3,1
12/3/2002 17:00,16.7,1,58.4,1,17.4,1,16.1,1,11.3,1
12/3/2002 17:15,16.7,1,58.4,1,17.3,1,16,1,11.3,1
12/3/2002 17:30,16.6,1,58.3,1,17.1,1,15.9,1,11.4,1
12/3/2002 17:45,16.6,1,58.1,1,17,1,15.8,1,11.4,1
12/3/2002 18:00,16.5,1,58.1,1,16.9,1,15.7,1,11.4,1
12/3/2002 18:15,16.5,1,58.1,1,16.7,1,15.6,1,11.4,1
12/3/2002 18:30,16.4,1,58.1,1,16.6,1,15.5,1,11.5,1
12/3/2002 18:45,16.4,1,58.1,1,16.5,1,15.3,1,11.5,1
12/3/2002 19:00,16.3,1,58.1,1,16.4,1,15.2,1,11.5,1
12/3/2002 19:15,16.3,1,57.9,1,16.3,1,15.1,1,11.5,1
12/3/2002 19:30,16.2,1,58,1,16.1,1,14.9,1,11.5,1
12/3/2002 19:45,15.2,1,60.4,1,16,1,14.8,1,11.4,1
12/3/2002 20:00,17.1,1,56.3,1,15.8,1,14.8,1,11.5,1
12/3/2002 20:15,17.8,1,56.2,1,15.7,1,14.7,1,11.5,1
12/3/2002 20:30,17.4,1,59.7,1,15.7,1,14.7,1,11.6,1
12/3/2002 20:45,17,1,59.3,1,15.6,1,14.6,1,11.6,1
12/3/2002 21:00,16.8,1,58.8,1,15.5,1,14.5,1,11.6,1
12/3/2002 21:15,16.5,1,60.2,1,15.5,1,14.4,1,11.6,1
12/3/2002 21:30,18.1,1,60.9,1,15.4,1,14.4,1,11.5,1
12/3/2002 21:45,18.8,1,60.7,1,15.4,1,14.3,1,11.6,1
12/3/2002 22:00,19.1,1,59.5,1,15.5,1,14.2,1,11.3,1
12/3/2002 22:15,19.9,1,57.3,1,15.7,1,14.2,1,11.3,1
12/3/2002 22:30,20.3,1,57.6,1,16,1,14.1,1,11.3,1
12/3/2002 22:45,20.8,1,57,1,16.1,1,14,1,11.4,1
12/3/2002 23:00,21,1,55.8,1,16.3,1,14,1,11.3,1
12/3/2002 23:15,21.5,1,55.2,1,16.3,1,13.9,1,11.3,1
12/3/2002 23:30,20.7,1,53.2,1,16.3,1,13.9,1,11.1,1
12/3/2002 23:45,21.6,1,59.1,1,16.4,1,13.9,1,11.1,1
12/4/2002 0:00,22.5,1,57.6,1,16.4,1,13.9,1,11.2,1
12/4/2002 0:15,18.4,1,57,1,16.7,1,13.9,1,11.3,1
12/4/2002 0:30,17.5,1,59.6,1,16.8,1,13.9,1,11.3,1
12/4/2002 0:45,17.2,1,59.5,1,16.7,1,13.9,1,11.3,1
12/4/2002 1:00,16.8,1,59.7,1,16.7,1,13.9,1,11.3,1
12/4/2002 1:15,16.7,1,59.5,1,16.6,1,13.9,1,11.3,1
12/4/2002 1:30,16.4,1,59.5,1,16.5,1,13.9,1,11.4,1
12/4/2002 1:45,16.4,1,58.9,1,16.5,1,13.9,1,11.4,1
12/4/2002 2:00,16.1,1,59.5,1,16.4,1,13.9,1,11.4,1
12/4/2002 2:15,16,1,59.4,1,16.3,1,13.9,1,11.4,1
12/4/2002 2:30,15.8,1,59.6,1,16.2,1,13.8,1,11.4,1
12/4/2002 2:45,15.6,1,59.9,1,16.2,1,13.9,1,11.5,1
12/4/2002 3:00,15.6,1,59.9,1,16.1,1,13.8,1,11.5,1
12/4/2002 3:15,15.5,1,60.1,1,16,1,13.8,1,11.5,1
12/4/2002 3:30,15.4,1,60.2,1,16,1,13.8,1,11.5,1
12/4/2002 3:45,15.3,1,60.4,1,15.9,1,13.8,1,11.5,1
12/4/2002 4:00,15.2,1,60.5,1,15.9,1,13.8,1,11.6,1
12/4/2002 4:15,15.2,1,60.5,1,15.8,1,13.8,1,11.6,1
12/4/2002 4:30,15.1,1,60.6,1,15.8,1,13.8,1,11.6,1
12/4/2002 4:45,15,1,60.7,1,15.8,1,13.7,1,11.6,1
12/4/2002 5:00,14.9,1,61,1,15.7,1,13.7,1,11.6,1
12/4/2002 5:15,14.9,1,61.1,1,15.6,1,13.7,1,11.6,1
12/4/2002 5:30,14.7,1,61.4,1,15.6,1,13.7,1,11.7,1
12/4/2002 5:45,14.8,1,61.2,1,15.5,1,13.7,1,11.7,1
12/4/2002 6:00,14.7,1,61.7,1,15.5,1,13.6,1,11.7,1
12/4/2002 6:15,14.8,1,63.7,1,15.4,1,13.6,1,11.8,1
12/4/2002 6:30,14.7,1,65.5,1,15.2,1,13.6,1,11.8,1
12/4/2002 6:45,14.8,1,66.4,1,15.1,1,13.6,1,11.8,1
12/4/2002 7:00,14.9,1,66.6,1,15.1,1,13.6,1,11.8,1
12/4/2002 7:15,14.8,1,62.8,1,14.9,1,13.6,1,11.8,1
12/4/2002 7:30,14.4,1,62.9,1,14.5,1,13.6,1,11.8,1
12/4/2002 7:45,14,1,63.2,1,14.2,1,13.5,1,11.8,1
12/4/2002 8:00,14.1,1,65.4,1,13.9,1,13.5,1,11.8,1
12/4/2002 8:15,14.2,1,66.2,1,13.8,1,13.5,1,11.4,1
12/4/2002 8:30,14.2,1,66.6,1,13.8,1,13.5,1,11.5,1
12/4/2002 8:45,14.3,1,66.1,1,13.7,1,13.4,1,11.6,1
12/4/2002 9:00,14.3,1,69.8,1,13.8,1,13.4,1,11.6,1
12/4/2002 9:15,14.6,1,70.1,1,13.8,1,13.4,1,11.5,1
12/4/2002 9:30,14.4,1,70.9,1,13.9,1,13.4,1,11.5,1
12/4/2002 9:45,14.7,1,71.1,1,14,1,13.4,1,11.5,1
12/4/2002 10:00,14.8,1,71.1,1,14.1,1,13.4,1,11.5,1
12/4/2002 10:15,14.8,1,71.4,1,14.1,1,13.3,1,11.6,1
12/4/2002 10:30,14.7,1,67.4,1,14.2,1,13.3,1,11.4,1
12/4/2002 10:45,14.8,1,71.9,1,14.2,1,13.3,1,11.7,1
12/4/2002 11:00,14.8,1,71.7,1,14.2,1,13.3,1,11.7,1
12/4/2002 11:15,14.8,1,71.9,1,14.2,1,13.3,1,11.7,1
12/4/2002 11:30,14.8,1,72.1,1,14.2,1,13.3,1,11.7,1
12/4/2002 11:45,14.8,1,72.3,1,14.2,1,13.3,1,11.7,1
12/4/2002 12:00,14.8,1,72.1,1,14.2,1,13.2,1,11.7,1
12/4/2002 12:15,14.7,1,72.1,1,14.2,1,13.2,1,11.8,1
12/4/2002 12:30,14.7,1,71.9,1,14.2,1,13.2,1,11.8,1
12/4/2002 12:45,14.7,1,71.9,1,14.1,1,13.2,1,11.8,1
12/4/2002 13:00,14.6,1,70.1,1,14.2,1,13.2,1,11.4,1
12/4/2002 13:15,14.9,1,72.3,1,15.9,1,13.2,1,11.4,1
12/4/2002 13:30,14.7,1,69.1,1,17.4,1,13.2,1,11.5,1
12/4/2002 13:45,14.6,1,69.5,1,18.8,1,13.2,1,11.5,1
12/4/2002 14:00,14.6,1,70.2,1,19.8,1,13.2,1,11.4,1
12/4/2002 14:15,14.6,1,70,1,20.7,1,13.2,1,11.4,1
12/4/2002 14:30,14.8,1,69.8,1,20.4,1,13.2,1,11.7,1
12/4/2002 14:45,14.9,1,69.3,1,19.8,1,13.2,1,11.7,1
12/4/2002 15:00,15,1,68.8,1,19.4,1,13.2,1,11.7,1
12/4/2002 15:15,15,1,68.7,1,18.9,1,13.2,1,11.7,1
12/4/2002 15:30,15,1,68.1,1,18.4,1,13.2,1,11.7,1
12/4/2002 15:45,14.9,1,68,1,18,1,13.1,1,11.8,1
12/4/2002 16:00,14.9,1,67.7,1,17.6,1,13.1,1,11.8,1
12/4/2002 16:15,14.9,1,67.3,1,17.2,1,13.1,1,11.8,1
12/4/2002 16:30,14.8,1,67.3,1,16.9,1,13,1,11.8,1
12/4/2002 16:45,14.8,1,67,1,16.6,1,13,1,11.8,1
12/4/2002 17:00,14.8,1,66.8,1,16.3,1,12.9,1,11.8,1
12/4/2002 17:15,14.5,1,67.8,1,16.8,1,12.9,1,11.8,1
12/4/2002 17:30,14.3,1,67.2,1,18.3,1,12.9,1,11.8,1
12/4/2002 17:45,14.7,1,69.7,1,19.5,1,12.9,1,11.9,1
12/4/2002 18:00,15,1,72.8,1,20.4,1,12.8,1,11.9,1
12/4/2002 18:15,15.2,1,78,1,21,1,12.8,1,11.9,1
12/4/2002 18:30,15.6,1,82.9,1,21.4,1,12.8,1,11.6,1
12/4/2002 18:45,15.5,1,77.3,1,21.6,1,12.7,1,11.6,1
12/4/2002 19:00,15.6,1,77.7,1,21.7,1,12.7,1,11.6,1
12/4/2002 19:15,15.6,1,79.7,1,21.8,1,12.7,1,11.6,1
12/4/2002 19:30,15.7,1,77.2,1,21.9,1,12.6,1,11.6,1
12/4/2002 19:45,15.9,1,78.2,1,22,1,12.6,1,11.5,1
12/4/2002 20:00,15.8,1,73.9,1,21.9,1,12.6,1,11.5,1
12/4/2002 20:15,15.2,1,71.7,1,21.7,1,12.6,1,11.5,1
12/4/2002 20:30,15.1,1,71.8,1,21.8,1,12.5,1,11.5,1
12/4/2002 20:45,15,1,71.7,1,21.9,1,12.5,1,11.5,1
12/4/2002 21:00,14.9,1,72.9,1,21.7,1,12.5,1,11.4,1
12/4/2002 21:15,14.8,1,72.4,1,21.9,1,12.5,1,11.4,1
12/4/2002 21:30,14.7,1,71.7,1,22.1,1,12.5,1,11.4,1
12/4/2002 21:45,14.6,1,71.1,1,22.3,1,12.5,1,11.4,1
12/4/2002 22:00,14.6,1,71.5,1,22.4,1,12.5,1,11.4,1
12/4/2002 22:15,14.6,1,71.1,1,22.5,1,12.5,1,11.1,1
12/4/2002 22:30,14.5,1,70.4,1,22.6,1,12.4,1,11.2,1
12/4/2002 22:45,14.7,1,72.8,1,22.2,1,12.4,1,11.2,1
12/4/2002 23:00,14.7,1,73.3,1,22.2,1,12.4,1,11.2,1
12/4/2002 23:15,14.7,1,73.9,1,22.2,1,12.4,1,11.2,1
12/4/2002 23:30,14.7,1,74,1,22.3,1,12.4,1,11.2,1
12/4/2002 23:45,14.6,1,74.6,1,22.6,1,12.5,1,11.1,1
12/5/2002 0:00,14.6,1,73.6,1,22.9,1,12.5,1,11.1,1
12/5/2002 0:15,14.4,1,74.7,1,23.2,1,12.5,1,11.1,1
12/5/2002 0:30,14.3,1,72.6,1,23.4,1,12.5,1,11.1,1
12/5/2002 0:45,14.2,1,73.3,1,22.9,1,12.5,1,11.1,1
12/5/2002 1:00,14.1,1,73.1,1,22.1,1,12.5,1,11.1,1
12/5/2002 1:15,14,1,72.1,1,21.2,1,12.5,1,11.2,1
12/5/2002 1:30,13.9,1,71.7,1,20.4,1,12.5,1,11.1,1
12/5/2002 1:45,13.8,1,71.5,1,19.7,1,12.4,1,11.2,1
12/5/2002 2:00,13.8,1,71.1,1,19.1,1,12.4,1,11.2,1
12/5/2002 2:15,13.7,1,70.8,1,18.6,1,12.3,1,11.2,1
12/5/2002 2:30,13.6,1,70.5,1,18.1,1,12.3,1,11.2,1
12/5/2002 2:45,13.6,1,69.9,1,17.7,1,12.3,1,11.2,1
12/5/2002 3:00,13.5,1,69.6,1,17.3,1,12.2,1,11.2,1
12/5/2002 3:15,13.4,1,69.7,1,17,1,12.2,1,11.2,1
12/5/2002 3:30,13.4,1,69.5,1,16.7,1,12.1,1,11.2,1
12/5/2002 3:45,13.3,1,69.4,1,16.4,1,12,1,11.2,1
12/5/2002 4:00,13.3,1,69.1,1,16.1,1,12,1,11.2,1
12/5/2002 4:15,13.2,1,69,1,15.8,1,11.9,1,11.2,1
12/5/2002 4:30,13.1,1,69.1,1,15.6,1,11.9,1,11.2,1
12/5/2002 4:45,13,1,69.3,1,15.4,1,11.8,1,11.2,1
12/5/2002 5:00,13,1,69.1,1,15.2,1,11.7,1,11.1,1
12/5/2002 5:15,12.9,1,69.4,1,15,1,11.7,1,11.1,1
12/5/2002 5:30,12.8,1,69.4,1,14.8,1,11.6,1,11.1,1
12/5/2002 5:45,12.8,1,69.4,1,14.7,1,11.6,1,11.1,1
12/5/2002 6:00,12.7,1,69.4,1,14.6,1,11.5,1,11.1,1
12/5/2002 6:15,12.7,1,69.7,1,14.4,1,11.5,1,11.1,1
12/5/2002 6:30,13.1,1,70.8,1,14.2,1,11.4,1,11.7,1
12/5/2002 6:45,13,1,72.8,1,14,1,11.4,1,11.7,1
12/5/2002 7:00,12.9,1,71,1,13.7,1,11.4,1,11.7,1
12/5/2002 7:15,12.5,1,69.1,1,13.4,1,11.4,1,11.7,1
12/5/2002 7:30,11.6,1,70.6,1,12.8,1,11.4,1,11.7,1
12/5/2002 7:45,10.6,1,76.6,1,12.1,1,11.5,1,11.6,1
12/5/2002 8:00,10.6,1,77.7,1,11.7,1,11.8,1,11.6,1
12/5/2002 8:15,10.9,1,77.2,1,11,1,11.9,1,11.6,1
12/5/2002 8:30,11,1,78.5,1,10.7,1,11.8,1,11.6,1
12/5/2002 8:45,11.3,1,78.6,1,10.9,1,11.8,1,11.6,1
12/5/2002 9:00,11.6,1,77.6,1,11.1,1,11.7,1,11.6,1
12/5/2002 9:15,11.7,1,79.6,1,11.4,1,11.7,1,11.5,1
12/5/2002 9:30,12.2,1,78.5,1,11.7,1,11.8,1,11.2,1
12/5/2002 9:45,12.8,1,76.5,1,12.2,1,12,1,11.2,1
12/5/2002 10:00,12.9,1,78.7,1,12.6,1,12.1,1,11.2,1
12/5/2002 10:15,13.2,1,79.4,1,13,1,12.3,1,11.1,1
12/5/2002 10:30,13.3,1,77.2,1,13.4,1,12.6,1,11.1,1
12/5/2002 10:45,13.7,1,76.8,1,13.8,1,13,1,11.2,1
12/5/2002 11:00,13.9,1,75.7,1,14.1,1,13.2,1,11.1,1
12/5/2002 11:15,14.1,1,75.6,1,14.4,1,13.5,1,11.1,1
12/5/2002 11:30,14.4,1,73.3,1,14.5,1,13.7,1,11,1
12/5/2002 11:45,14.4,1,73.5,1,14.7,1,13.8,1,11,1
12/5/2002 12:00,14.6,1,74.6,1,14.8,1,14,1,11,1
12/5/2002 12:15,14.9,1,75.1,1,15.1,1,14.2,1,11,1
12/5/2002 12:30,15.5,1,76.4,1,15.4,1,14.3,1,11,1
12/5/2002 12:45,15.9,1,74.1,1,15.8,1,14.5,1,11.1,1
12/5/2002 13:00,16.4,1,72,1,16.2,1,14.7,1,11.1,1
12/5/2002 13:15,16.6,1,71.8,1,16.6,1,15,1,11.1,1
12/5/2002 13:30,16.9,1,70.8,1,17,1,15.3,1,11.1,1
12/5/2002 13:45,16.8,1,70.4,1,17.2,1,15.6,1,11.1,1
12/5/2002 14:00,16.7,1,70.3,1,17.4,1,15.8,1,11.1,1
12/5/2002 14:15,16.7,1,70.3,1,17.5,1,15.9,1,11.2,1
12/5/2002 14:30,16.6,1,70.4,1,17.6,1,16,1,11.2,1
12/5/2002 14:45,16.6,1,70.1,1,17.6,1,16.1,1,11.2,1
12/5/2002 15:00,16.6,1,69.9,1,17.7,1,16.2,1,11.2,1
12/5/2002 15:15,16.5,1,69.7,1,17.6,1,16.2,1,11.2,1
12/5/2002 15:30,16.6,1,70.8,1,17.6,1,16.2,1,11.1,1
12/5/2002 15:45,16.5,1,69.5,1,17.5,1,16.3,1,11.1,1
12/5/2002 16:00,16.4,1,70.7,1,17.5,1,16.3,1,11,1
12/5/2002 16:15,16.3,1,70.2,1,17.4,1,16.3,1,11.2,1
12/5/2002 16:30,16.2,1,70.4,1,17.3,1,16.3,1,11.2,1
12/5/2002 16:45,16.2,1,70.3,1,17.2,1,16.3,1,11.3,1
12/5/2002 17:00,16.2,1,70.6,1,17.1,1,16.3,1,11.3,1
12/5/2002 17:15,16.2,1,70.6,1,17,1,16.2,1,11.2,1
12/5/2002 17:30,16.3,1,70.3,1,16.9,1,16.2,1,11.3,1
12/5/2002 17:45,16.2,1,71.1,1,16.8,1,16.2,1,11.3,1
12/5/2002 18:00,16.1,1,71.3,1,16.7,1,16.1,1,11.3,1
12/5/2002 18:15,16,1,71.2,1,16.6,1,16.1,1,11.4,1
12/5/2002 18:30,16,1,71.1,1,16.6,1,16.1,1,11.4,1
12/5/2002 18:45,15.9,1,71.1,1,16.5,1,16,1,11.4,1
12/5/2002 19:00,15.8,1,71.2,1,16.4,1,15.9,1,11.5,1
12/5/2002 19:15,15.8,1,70.9,1,16.4,1,15.9,1,11.5,1
12/5/2002 19:30,15.8,1,70.7,1,16.3,1,15.8,1,11.6,1
12/5/2002 19:45,15.8,1,70.8,1,16.2,1,15.8,1,11.6,1
12/5/2002 20:00,15.8,1,71,1,16.1,1,15.7,1,11.6,1
12/5/2002 20:15,17.3,1,67.3,1,16.1,1,15.7,1,11.7,1
12/5/2002 20:30,18.2,1,65.1,1,16.1,1,15.6,1,11.7,1
12/5/2002 20:45,18.3,1,63.2,1,16.1,1,15.5,1,11.7,1